This is the latest recevied weather packets stored in our database for station/object HG8LXL-2. If no packets are shown the sender has not sent any weather packets the latest 10 day(s).
| Time | Temp. | Humidity | Pressure | Rain* | Wind** | Luminosity | Snow |
|---|---|---|---|---|---|---|---|
| 1788274251 | 32.78° C | 17% | 1014.2 hPa | - | - | - | - |
| 1788273951 | 33.33° C | 17% | 1014.2 hPa | - | - | - | - |
| 1788273651 | 33.33° C | 17% | 1014.3 hPa | - | - | - | - |
| 1788273351 | 31.67° C | 18% | 1014.2 hPa | - | - | - | - |
| 1788273051 | 32.22° C | 18% | 1014.3 hPa | - | - | - | - |
| 1788272751 | 32.78° C | 17% | 1014.3 hPa | - | - | - | - |
| 1788272451 | 32.78° C | 16% | 1014.2 hPa | - | - | - | - |
| 1788272151 | 32.78° C | 17% | 1014.2 hPa | - | - | - | - |
| 1788271851 | 32.78° C | 17% | 1014.3 hPa | - | - | - | - |
| 1788271555 | 33.89° C | 16% | 1014.2 hPa | - | - | - | - |
| 1788271251 | 33.89° C | 16% | 1014.2 hPa | - | - | - | - |
| 1788270951 | 33.89° C | 16% | 1014.3 hPa | - | - | - | - |
| 1788270651 | 33.89° C | 16% | 1014.3 hPa | - | - | - | - |
| 1788270351 | 34.44° C | 15% | 1014.3 hPa | - | - | - | - |
| 1788270051 | 33.89° C | 15% | 1014.4 hPa | - | - | - | - |
| 1788269751 | 33.33° C | 16% | 1014.4 hPa | - | - | - | - |
| 1788269451 | 33.33° C | 15% | 1014.4 hPa | - | - | - | - |
| 1788269151 | 32.78° C | 15% | 1014.4 hPa | - | - | - | - |
| 1788268851 | 33.33° C | 16% | 1014.4 hPa | - | - | - | - |
| 1788268551 | 33.89° C | 16% | 1014.5 hPa | - | - | - | - |
| 1788268251 | 33.89° C | 15% | 1014.5 hPa | - | - | - | - |
| 1788267952 | 33.33° C | 14% | 1014.6 hPa | - | - | - | - |
| 1788267651 | 33.33° C | 16% | 1014.5 hPa | - | - | - | - |
| 1788267355 | 33.89° C | 16% | 1014.6 hPa | - | - | - | - |
| 1788267051 | 33.33° C | 15% | 1014.8 hPa | - | - | - | - |
* Rain since midnight (hover to see other rain measurements)
** Current wind speed in m/s (hover to see current wind gust speed)